Weather History for Lee's Summit, MO

Change the Weather History Date:

Tuesday, July 22, 2014

  Actual Average (KMKC) Record (KMKC)
Temperature  
Mean Temperature 85 °F -  
Max Temperature 95 °F 87 °F 102 °F (2011)
Min Temperature 75 °F 70 °F 64 °F (2000)
Cooling Degree Days 20    
Growing Degree Days 35 (Base 50)    
Moisture  
Dew Point 74 °F    
Average Humidity 71    
Maximum Humidity 90    
Minimum Humidity 50    
Precipitation  
Precipitation 0.00 in - - ()
Sea Level Pressure  
Sea Level Pressure 30.00 in    
Wind  
Wind Speed 8 mph (SW)    
Max Wind Speed 14 mph    
Max Gust Speed 17 mph    
Visibility 9 miles    
Events      
Averages and records for this station are not official NWS values.
T = Trace of Precipitation, MM = Missing Value Source: NWS Daily Summary

Daily Weather History Graph

Daily Weather History Graph

Search for Another Location

Airport:

Trip Planner

Search our weather history database for the weather conditions in past years. The results will help you decide how hot, cold, wet, or windy it might be!

Date:

Astronomy

Jul. 22, 2014 Rise Set
Actual Time 6:09 AM CDT 8:37 PM CDT
Civil Twilight 5:39 AM CDT 9:08 PM CDT
Nautical Twilight 5:01 AM CDT 9:45 PM CDT
Astronomical Twilight 4:19 AM CDT 10:27 PM CDT
Moon 2:43 AM CDT (7/22) 5:16 PM CDT (7/22)
Length of Visible Light 15h 29m
Length of Day
14h 27m
Waning Crescent, 16% of the Moon is Illuminated
Jul 22
Waning Crescent
Jul 26
New
Aug 3
First Quarter
Aug 10
Full
Aug 17
Last Quarter

Hourly Weather History & Observations

Time (CDT) Temp. Heat Index Dew Point Humidity Pressure Visibility Wind Dir Wind Speed Gust Speed Precip Events Conditions
12:53 AM 80.1 °F 83.8 °F 72.0 °F 76% 29.98 in 10.0 mi SSW 9.2 mph - N/A   Clear
1:53 AM 79.0 °F - 73.0 °F 82% 29.97 in 10.0 mi SSW 9.2 mph - N/A   Clear
2:53 AM 78.1 °F - 73.0 °F 84% 29.97 in 10.0 mi SSW 6.9 mph - N/A   Clear
3:53 AM 77.0 °F - 73.0 °F 88% 29.97 in 9.0 mi South 10.4 mph 17.3 mph N/A   Clear
4:53 AM 75.9 °F - 72.0 °F 87% 29.99 in 8.0 mi SSW 8.1 mph - N/A   Clear
5:53 AM 75.0 °F - 72.0 °F 90% 30.00 in 7.0 mi South 8.1 mph - N/A   Clear
6:53 AM 75.0 °F - 72.0 °F 90% 30.02 in 6.0 mi SSW 6.9 mph - N/A   Clear
7:53 AM 75.9 °F - 72.0 °F 87% 30.01 in 7.0 mi SSW 10.4 mph - N/A   Clear
9:53 AM 82.0 °F 87.9 °F 73.9 °F 76% 30.01 in 9.0 mi SW 10.4 mph - N/A   Clear
10:53 AM 84.0 °F 91.2 °F 73.9 °F 72% 30.02 in 9.0 mi WSW 9.2 mph - N/A   Clear
11:53 AM 87.1 °F 97.3 °F 75.9 °F 69% 30.02 in 9.0 mi SW 13.8 mph - N/A   Clear
12:53 PM 90.0 °F 102.5 °F 77.0 °F 65% 30.01 in 10.0 mi SSW 12.7 mph - N/A   Clear
1:53 PM 91.0 °F 101.6 °F 75.0 °F 59% 30.00 in 10.0 mi SW 8.1 mph - N/A   Clear
2:53 PM 93.0 °F 104.6 °F 75.0 °F 56% 29.99 in 10.0 mi SW 9.2 mph - N/A   Clear
3:53 PM 93.0 °F 105.3 °F 75.9 °F 57% 29.98 in 10.0 mi SW 10.4 mph - N/A   Clear
4:53 PM 95.0 °F 105.2 °F 73.9 °F 50% 29.97 in 10.0 mi SSW 9.2 mph - N/A   Clear
5:53 PM 93.9 °F 106.9 °F 75.9 °F 56% 29.97 in 10.0 mi SW 4.6 mph - N/A   Clear
6:53 PM 95.0 °F 109.7 °F 77.0 °F 56% 29.97 in 10.0 mi WSW 4.6 mph - N/A   Clear
7:53 PM 91.9 °F 101.3 °F 73.9 °F 55% 29.99 in 10.0 mi NNW 4.6 mph - N/A   Clear
8:53 PM 89.1 °F 100.2 °F 75.9 °F 65% 30.00 in 10.0 mi NE 5.8 mph - N/A   Clear
9:53 PM 87.1 °F 97.3 °F 75.9 °F 69% 30.01 in 10.0 mi ENE 4.6 mph - N/A   Clear
10:53 PM 86.0 °F 96.0 °F 75.9 °F 72% 30.02 in 10.0 mi Calm Calm - N/A   Clear
11:53 PM 82.0 °F 89.4 °F 75.9 °F 82% 30.04 in 10.0 mi Calm Calm - N/A   Clear